This is the latest recevied weather packets stored in our database for station/object K7NDG. If no packets are shown the sender has not sent any weather packets the latest 10 day(s).
| Time | Temp. | Humidity | Pressure | Rain* | Wind** | Luminosity | Snow |
|---|---|---|---|---|---|---|---|
| 1777845810 | 30.56° C | 34% | 1010.6 hPa | 0 mm | - | 703 W/m² | - |
| 1777845506 | 30° C | 37% | 1010.8 hPa | 0 mm | - | 684 W/m² | - |
| 1777845204 | 30° C | 37% | 1010.7 hPa | 0 mm | - | 700 W/m² | - |
| 1777844901 | 30° C | 34% | 1010.9 hPa | 0 mm | - | 689 W/m² | - |
| 1777844598 | 30° C | 37% | 1010.9 hPa | 0 mm | - | 685 W/m² | - |
| 1777844296 | 30° C | 37% | 1010.7 hPa | 0 mm | - | 681 W/m² | - |
| 1777843993 | 30° C | 36% | 1011.1 hPa | 0 mm | - | 676 W/m² | - |
| 1777843690 | 29.44° C | 37% | 1010.8 hPa | 0 mm | - | 673 W/m² | - |
| 1777843388 | 29.44° C | 38% | 1011.2 hPa | 0 mm | - | 667 W/m² | - |
| 1777843085 | 29.44° C | 37% | 1011 hPa | 0 mm | - | 641 W/m² | - |
| 1777842782 | 29.44° C | 37% | 1011.1 hPa | 0 mm | - | 667 W/m² | - |
| 1777842481 | 28.89° C | 36% | 1011.4 hPa | 0 mm | - | 658 W/m² | - |
| 1777842180 | 28.89° C | 38% | 1011.1 hPa | 0 mm | - | 667 W/m² | - |
| 1777841874 | 28.89° C | 37% | 1011.2 hPa | 0 mm | - | 641 W/m² | - |
| 1777841571 | 28.89° C | 35% | 1011.3 hPa | 0 mm | - | 630 W/m² | - |
| 1777841268 | 28.89° C | 40% | 1011.4 hPa | 0 mm | - | 624 W/m² | - |
| 1777840965 | 28.89° C | 42% | 1011.5 hPa | 0 mm | - | 530 W/m² | - |
| 1777840663 | 28.33° C | 39% | 1011.5 hPa | 0 mm | - | 535 W/m² | - |
| 1777840360 | 27.78° C | 39% | 1011.6 hPa | 0 mm | - | 613 W/m² | - |
| 1777840057 | 28.33° C | 38% | 1011.6 hPa | 0 mm | - | 590 W/m² | - |
| 1777839755 | 28.33° C | 39% | 1011.8 hPa | 0 mm | - | 614 W/m² | - |
| 1777839452 | 28.33° C | 39% | 1012.1 hPa | 0 mm | - | 618 W/m² | - |
| 1777839150 | 27.78° C | 41% | 1012 hPa | 0 mm | - | 634 W/m² | - |
| 1777838846 | 27.78° C | 40% | 1012.1 hPa | 0 mm | - | 642 W/m² | - |
| 1777838542 | 27.78° C | 37% | 1012.2 hPa | 0 mm | - | 646 W/m² | - |
* Rain latest hour (hover to see other rain measurements)
** Current wind speed in m/s (hover to see current wind gust speed)